Weather Roundup
Issued by NWS Chicago, IL

Home | Current Version | Previous Version | Graphics & Text | Print | Product List | Glossary On
Versions: 1 2 3 4 5 6 7 8 9 10 11 12 13 14 15 16 17 18 19 20 21 22 23 24 25 26 27 28 29 30 31 32 33 34 35 36 37 38 39 40 41 42 43 44 45 46 47 48 49 50
000
NZUS59 KLOT 271802
HRRLOT

CHICAGO AREA WEATHER ROUNDUP
NATIONAL WEATHER SERVICE CHICAGO/ROMEOVILLE IL
100 PM CDT WED MAY 27 2015

NOTE: "FAIR" INDICATES FEW OR NO CLOUDS BELOW 12,000 FEET WITH NO
SIGNIFICANT WEATHER AND/OR OBSTRUCTIONS TO VISIBILITY.

* THESE STATIONS ARE NOT UNDER NWS QUALITY CONTROL. THEY ALSO MAY NOT
  REPORT WEATHER SUCH AS PRECIPITATION OR FOG.

ILZ005-006-012>014-019>023-271900-
NORTHEAST ILLINOIS

CITY           SKY/WX    TMP DP  RH WIND       PRES   REMARKS
OHARE          PTSUNNY   72  58  61 W16G28    29.98R
6HR MIN TEMP:  65; 6HR MAX TEMP:  72; 6HR PCP: TRACE;

MIDWAY         LGT RAIN  67  61  81 SW13      29.99R
6HR MIN TEMP:  67; 6HR MAX TEMP:  75;

AURORA         MOSUNNY   74  59  59 W20G26    30.00S
6HR MIN TEMP:  65; 6HR MAX TEMP:  74;

WAUKEGAN       LGT RAIN  67  58  72 W8G18     29.97R
6HR MIN TEMP:  62; 6HR MAX TEMP:  71; 6HR PCP:  0.08;

DUPAGE AIRPORT PTSUNNY   72  58  61 W20G26    29.99R
6HR MIN TEMP:  63; 6HR MAX TEMP:  73;

WHEELING       PTSUNNY   72  59  63 W13       29.99R
6HR MIN TEMP:  65; 6HR MAX TEMP:  72; 6HR PCP: TRACE;

NORTHERLY IS     N/A     68  59  73 W6          N/A
$$

WIZ051-052-058>065-066-070>072-271900-
SOUTHEAST WISCONSIN

CITY           SKY/WX    TMP DP  RH WIND       PRES   REMARKS
MILWAUKEE      PTSUNNY   69  55  60 W15G23    29.96R
6HR MIN TEMP:  63; 6HR MAX TEMP:  71; 6HR PCP:  0.01;

KENOSHA*       CLOUDY    65  60  84 NW14      29.98R
RACINE*        CLOUDY    69  60  73 NW10G17   29.98R
$$

INZ001>003-010>013-019-020-271900-
NORTHWEST INDIANA

CITY           SKY/WX    TMP DP  RH WIND       PRES   REMARKS
GARY*          PTSUNNY   75  57  53 W23G35    29.99S
MICHIGAN CITY* NOT AVBL
RENSSELAER*    NOT AVBL
$$

LMZ740>746-271900-
SOUTHERN LAKE MICHIGAN

STATION/POSITION TIME  SKY/WX   TEMP WIND        PRES    VSBY
                                AIR  DIR/SP/G
                 (UTC)          (F)  (DEG/KT/KT) (MB)    (MI)
HARRISON CRIB    1700            69  240/ 16/ 20   N/A
BURNHAM HARBOR   1800            68  180/  6/ 17   N/A
CALUMET HARBOR   1718            74  230/  8/ 17   N/A
BURNS HARBOR     1700            67  270/ 13/ 18 1015.9R
MICHIGAN CITY    1700            63  240/ 20/ 23   N/A
$$

ABBREVIATIONS USED IN REMARKS
   TC - TEMPERATURE IN CELSIUS
  WCI - WIND CHILL INDEX
   HX - HEAT INDEX
  VSB - VISIBILITY
$$


USA.gov is the U.S. government's official web portal to all federal, state and local government web resources and services.